SL-8 R/B

Satellite information

Favourite Embed

Satellite Type and Status

ROCKET BODYIN ORBIT

Key statistics

Satellite SL-8 R/B at a glance.

Uptime

19534

Days in orbit

Revolutions

≈ 13.8

Per day

Orbit

LEO

Low Earth Orbit

Inclination

74.0

Latest

Satellite identification and parameters

Extended collection of information and parameters for SL-8 R/B.

Object identification

Identified? True

Debris? False

Object name: SL-8 R/B

International designator: 1972-035B

Object number (NORAD): 6020

Object ID (CCSDS): 6020

Country: COMMONWEALTH OF INDEPENDENT STATES (CIS)

Current information (Y/N): Y

RCS size: LARGE

Orbital parameters

Period: 104.413 minutes

Inclination: 74.0226 deg

SMA: 7345.084 km

Apoapsis: 982.797 km

Periapsis: 951.101 km

RAAN: 207.9952 deg

Eccentricy: 0.00215767

Argument of periapsis: 226.0535 deg

Mean anomaly: 307.3291 deg

Mean motion: 13.79137575 rev/day

Mean motion (dot): 0.00000065 rev/day2

B* drag term: 0.000085936999 1/REarth

Two-line elements (TLE)

Creation date: Oct. 28, 2025, 7:11 p.m.

Reference frame: TEME

Reference center: EARTH

Epoch: Oct. 28, 2025, 11:27 a.m. UTC

TLE line 0: 0 SL-8 R/B

TLE line 1: 1 06020U 72035B 25301.47772113 .00000065 00000-0 85937-4 0 9995

TLE line 2: 2 06020 74.0226 207.9952 0021577 226.0535 307.3291 13.79137575690042

Live tracking on map

Real-time ground track for satellite SL-8 R/B.

In-orbit conjunctions

A list of the most updated potential collisions computed for object SL-8 R/B.

Target Orbit TCA Probability of collision Miss distance Type
DELTA 1 DEB LEO 2025-05-23 01:22:35 0.0002597154 498.0 (m) DEBRIS
FENGYUN 1C DEB SSO 2025-05-08 10:08:58 0.0006523435 144.0 (m) DEBRIS
DELTA 1 DEB SSO 2025-01-04 05:59:26 0.0003432491 279.0 (m) DEBRIS

Associated space launch

The first soviet navigation system called Tsiklon consisted of Zaliv satellites in low earth orbit.

SL-8 R/B was lifted into orbit during the mission ‘Kosmos-3M | Zaliv 11’, on board a Kosmos-3M space rocket.

The launch took place on May 6, 1972, 11:24 a.m. from 132/1 (132L).

For more information about the launch, click the button.

Launch to space Kosmos-3M | Zaliv 11
Kosmos-3M | Zaliv 11

Agency: N/A

Status: Launch Successful

Launch date: May 6, 1972, 11:24 a.m. UTC

Rocket: Kosmos-3M

Launch pad: 132/1 (132L)

Location: Plesetsk Cosmodrome, Russian Federation

...

Latest news about this satellite

There are no fresh news available about this satellite. Check back as we update our databases every day.


Newsletter sign-up

Weekly statistics, charts and insights to help you stay on top of the space industry.